Terminal Aerodrome Forecast
Issued by NWS Portland, ME

Home | Current Version | Previous Version | Text Only | Print | Product List | Glossary On
Versions: 1 2 3 4 5 6 7 8 9 10 11 12 13 14
000
FTUS41 KGYX 301120
TAFCON
TAF
KCON 301120Z 3012/0112 06004KT P6SM OVC009
     FM301400 08004KT P6SM OVC015
     FM301800 11003KT P6SM OVC025
     FM010100 03002KT 6SM BR OVC009
     FM010900 VRB03KT 3SM BR OVC003=

USA.gov is the U.S. government's official web portal to all federal, state and local government web resources and services.